^^
Station Historical Data
Daily Summary for September 17, 2021 Units:  English    Metric   Both
Daily Weekly Monthly Yearly
  High: Low: Average:
Temperature: 78.5 °F 62.9 °F 70 °F
Dew Point: 68.2 °F 57.1 °F 62.8 °F
Humidity: 89% 63% 78%
Wind Speed: 5mph 1mph 2mph
Wind Gust: 7mph - -
Wind- - South
Pressure: 30.08 in 29.95 in -
Precipitation: 0.00 in    
 
 
Tabular Data for September 17, 2021
Time Temperature Dew Point Pressure Wind Wind Speed Wind Gust Humidity Rainfall Rate (Hourly) solar
00:00 67.7 °F 59.9 °F 30.06 in NNW 2 mph 2 mph 76% 0.00 in 0 W/m2
00:05 67.4 °F 59.9 °F 30.06 in NE 2 mph 5 mph 77% 0.00 in 0 W/m2
00:10 67.4 °F 59.9 °F 30.07 in NW 2 mph 2 mph 77% 0.00 in 0 W/m2
00:15 67.3 °F 59.5 °F 30.07 in East 2 mph 2 mph 76% 0.00 in 0 W/m2
00:20 67.2 °F 59.4 °F 30.07 in North 2 mph 3 mph 76% 0.00 in 0 W/m2
00:25 67.1 °F 59.3 °F 30.08 in NNW 2 mph 3 mph 76% 0.00 in 0 W/m2
00:30 66.9 °F 58.7 °F 30.08 in ENE 2 mph 2 mph 75% 0.00 in 0 W/m2
00:35 66.8 °F 58.6 °F 30.08 in North 2 mph 2 mph 75% 0.00 in 0 W/m2
00:40 66.6 °F 58.4 °F 30.08 in East 2 mph 2 mph 75% 0.00 in 0 W/m2
00:45 66.7 °F 58.5 °F 30.08 in NNW 2 mph 2 mph 75% 0.00 in 0 W/m2
00:50 66.7 °F 58.5 °F 30.08 in NNW 2 mph 2 mph 75% 0.00 in 0 W/m2
00:55 66.7 °F 58.5 °F 30.08 in NNW 2 mph 2 mph 75% 0.00 in 0 W/m2
01:00 66.6 °F 58.1 °F 30.08 in NNW 2 mph 2 mph 74% 0.00 in 0 W/m2
01:05 66.5 °F 58.7 °F 30.08 in NNE 2 mph 2 mph 76% 0.00 in 0 W/m2
01:10 66.4 °F 57.9 °F 30.08 in East 2 mph 2 mph 74% 0.00 in 0 W/m2
01:15 66.4 °F 58.2 °F 30.08 in NNW 2 mph 2 mph 75% 0.00 in 0 W/m2
01:20 66.4 °F 57.9 °F 30.08 in NW 2 mph 2 mph 74% 0.00 in 0 W/m2
01:25 66.3 °F 58.1 °F 30.08 in NW 2 mph 2 mph 75% 0.00 in 0 W/m2
01:30 66.3 °F 57.8 °F 30.08 in North 2 mph 2 mph 74% 0.00 in 0 W/m2
01:35 66.2 °F 58 °F 30.08 in WNW 2 mph 3 mph 75% 0.00 in 0 W/m2
01:40 66.1 °F 57.6 °F 30.08 in WNW 1 mph 1 mph 74% 0.00 in 0 W/m2
01:45 65.9 °F 57.4 °F 30.07 in ENE 1 mph 2 mph 74% 0.00 in 0 W/m2
01:50 65.9 °F 57.7 °F 30.08 in NE 2 mph 2 mph 75% 0.00 in 0 W/m2
01:55 65.8 °F 58 °F 30.08 in NNE 1 mph 2 mph 76% 0.00 in 0 W/m2
02:00 65.8 °F 57.7 °F 30.07 in NE 1 mph 1 mph 75% 0.00 in 0 W/m2
02:05 65.8 °F 57.3 °F 30.07 in West 1 mph 2 mph 74% 0.00 in 0 W/m2
02:10 65.6 °F 57.1 °F 30.07 in ESE 1 mph 1 mph 74% 0.00 in 0 W/m2
02:15 65.7 °F 57.2 °F 30.07 in NE 1 mph 1 mph 74% 0.00 in 0 W/m2
02:20 65.8 °F 58 °F 30.07 in NE 1 mph 2 mph 76% 0.00 in 0 W/m2
02:25 65.8 °F 58 °F 30.07 in West 1 mph 2 mph 76% 0.00 in 0 W/m2
02:30 65.7 °F 57.6 °F 30.07 in West 1 mph 1 mph 75% 0.00 in 0 W/m2
02:35 65.7 °F 57.6 °F 30.07 in NE 1 mph 2 mph 75% 0.00 in 0 W/m2
02:40 65.6 °F 57.5 °F 30.07 in East 1 mph 2 mph 75% 0.00 in 0 W/m2
02:45 65.6 °F 57.8 °F 30.06 in NNE 1 mph 2 mph 76% 0.00 in 0 W/m2
02:50 65.6 °F 57.8 °F 30.06 in SSE 1 mph 1 mph 76% 0.00 in 0 W/m2
02:55 65.4 °F 57.6 °F 30.06 in SE 1 mph 2 mph 76% 0.00 in 0 W/m2
03:00 65.1 °F 57.3 °F 30.06 in ESE 1 mph 1 mph 76% 0.00 in 0 W/m2
03:05 64.8 °F 57.4 °F 30.06 in SE 1 mph 1 mph 77% 0.00 in 0 W/m2
03:10 64.7 °F 57.3 °F 30.06 in SSW 1 mph 2 mph 77% 0.00 in 0 W/m2
03:15 65 °F 57.6 °F 30.05 in SE 1 mph 2 mph 77% 0.00 in 0 W/m2
03:20 65 °F 57.6 °F 30.05 in SSE 1 mph 2 mph 77% 0.00 in 0 W/m2
03:25 65 °F 57.6 °F 30.05 in NNE 1 mph 2 mph 77% 0.00 in 0 W/m2
03:30 65 °F 57.6 °F 30.05 in NNE 1 mph 1 mph 77% 0.00 in 0 W/m2
03:35 64.9 °F 57.5 °F 30.05 in West 1 mph 1 mph 77% 0.00 in 0 W/m2
03:40 64.9 °F 57.9 °F 30.05 in ENE 1 mph 1 mph 78% 0.00 in 0 W/m2
03:45 64.8 °F 57.8 °F 30.04 in ENE 1 mph 1 mph 78% 0.00 in 0 W/m2
03:50 64.7 °F 57.7 °F 30.04 in NW 1 mph 2 mph 78% 0.00 in 0 W/m2
03:55 64.6 °F 57.6 °F 30.04 in NNE 1 mph 2 mph 78% 0.00 in 0 W/m2
04:00 64.5 °F 57.8 °F 30.04 in NNW 2 mph 2 mph 79% 0.00 in 0 W/m2
04:05 64.4 °F 57.7 °F 30.04 in NNW 2 mph 2 mph 79% 0.00 in 0 W/m2
04:10 64.3 °F 58 °F 30.04 in ENE 1 mph 1 mph 80% 0.00 in 0 W/m2
04:15 64.3 °F 58 °F 30.04 in West 1 mph 1 mph 80% 0.00 in 0 W/m2
04:20 64.2 °F 58.2 °F 30.04 in ENE 2 mph 2 mph 81% 0.00 in 0 W/m2
04:25 64.2 °F 58.2 °F 30.03 in ENE 2 mph 2 mph 81% 0.00 in 0 W/m2
04:30 64.2 °F 58.2 °F 30.03 in ESE 2 mph 2 mph 81% 0.00 in 0 W/m2
04:35 64.1 °F 58.1 °F 30.03 in ESE 1 mph 2 mph 81% 0.00 in 0 W/m2
04:40 64.1 °F 58.5 °F 30.03 in NE 2 mph 2 mph 82% 0.00 in 0 W/m2
04:45 64.1 °F 58.5 °F 30.03 in NW 2 mph 2 mph 82% 0.00 in 0 W/m2
04:50 64.1 °F 58.8 °F 30.03 in NW 2 mph 2 mph 83% 0.00 in 0 W/m2
04:55 64.1 °F 58.8 °F 30.03 in NE 2 mph 2 mph 83% 0.00 in 0 W/m2
05:00 64.1 °F 59.2 °F 30.03 in NE 1 mph 2 mph 84% 0.00 in 0 W/m2
05:05 64.1 °F 59.2 °F 30.03 in WNW 1 mph 2 mph 84% 0.00 in 0 W/m2
05:10 64 °F 58.7 °F 30.03 in NNW 1 mph 1 mph 83% 0.00 in 0 W/m2
05:15 64 °F 59.1 °F 30.03 in WNW 2 mph 2 mph 84% 0.00 in 0 W/m2
05:20 64 °F 59.1 °F 30.03 in WNW 1 mph 1 mph 84% 0.00 in 0 W/m2
05:25 64 °F 59.4 °F 30.03 in NNW 1 mph 2 mph 85% 0.00 in 0 W/m2
05:30 64 °F 59.4 °F 30.03 in South 1 mph 1 mph 85% 0.00 in 0 W/m2
05:35 63.9 °F 59.3 °F 30.03 in NW 1 mph 2 mph 85% 0.00 in 0 W/m2
05:40 63.9 °F 59.3 °F 30.03 in NNE 1 mph 1 mph 85% 0.00 in 0 W/m2
05:45 63.9 °F 59.6 °F 30.03 in NNE 1 mph 1 mph 86% 0.00 in 0 W/m2
05:50 63.9 °F 59.6 °F 30.02 in West 1 mph 1 mph 86% 0.00 in 0 W/m2
05:55 64 °F 59.7 °F 30.03 in WNW 1 mph 2 mph 86% 0.00 in 0 W/m2
06:00 63.9 °F 59.6 °F 30.03 in SSE 1 mph 1 mph 86% 0.00 in 0 W/m2
06:05 64 °F 59.7 °F 30.03 in WNW 1 mph 1 mph 86% 0.00 in 0 W/m2
06:10 64.1 °F 59.8 °F 30.03 in NNW 1 mph 1 mph 86% 0.00 in 0 W/m2
06:15 64.1 °F 60.2 °F 30.03 in NW 1 mph 1 mph 87% 0.00 in 0 W/m2
06:20 64.1 °F 60.2 °F 30.03 in NNW 1 mph 1 mph 87% 0.00 in 0 W/m2
06:25 64 °F 59.7 °F 30.03 in ESE 1 mph 1 mph 86% 0.00 in 0 W/m2
06:30 63.8 °F 59.5 °F 30.03 in WSW 2 mph 2 mph 86% 0.00 in 0 W/m2
06:35 63.7 °F 59.4 °F 30.03 in NW 2 mph 3 mph 86% 0.00 in 0 W/m2
06:40 63.6 °F 59.3 °F 30.03 in NW 2 mph 2 mph 86% 0.00 in 0 W/m2
06:45 63.5 °F 59.6 °F 30.03 in ESE 2 mph 2 mph 87% 0.00 in 0 W/m2
06:50 63.5 °F 59.6 °F 30.03 in ESE 2 mph 2 mph 87% 0.00 in 0 W/m2
06:55 63.4 °F 59.5 °F 30.03 in NNW 2 mph 2 mph 87% 0.00 in 0 W/m2
07:00 63.2 °F 59.3 °F 30.04 in NE 2 mph 2 mph 87% 0.00 in 0 W/m2
07:05 63.2 °F 59.3 °F 30.04 in NE 1 mph 2 mph 87% 0.00 in 0 W/m2
07:10 63.1 °F 59.2 °F 30.04 in ENE 1 mph 1 mph 87% 0.00 in 0 W/m2
07:15 62.9 °F 59.3 °F 30.04 in ESE 1 mph 1 mph 88% 0.00 in 5 W/m2
07:20 63 °F 59.4 °F 30.05 in NNW 1 mph 1 mph 88% 0.00 in 7 W/m2
07:25 63 °F 59.4 °F 30.05 in SE 1 mph 2 mph 88% 0.00 in 9 W/m2
07:30 63 °F 59.7 °F 30.05 in NNW 1 mph 2 mph 89% 0.00 in 11 W/m2
07:35 63.1 °F 59.8 °F 30.05 in ENE 1 mph 2 mph 89% 0.00 in 12 W/m2
07:40 63.2 °F 59.9 °F 30.05 in NNW 1 mph 1 mph 89% 0.00 in 14 W/m2
07:45 63.4 °F 60.1 °F 30.06 in NNW 1 mph 2 mph 89% 0.00 in 18 W/m2
07:50 63.6 °F 60.3 °F 30.06 in NNE 2 mph 2 mph 89% 0.00 in 19 W/m2
07:55 63.9 °F 60.6 °F 30.06 in NNE 2 mph 2 mph 89% 0.00 in 21 W/m2
08:00 64 °F 60.7 °F 30.06 in NW 2 mph 2 mph 89% 0.00 in 23 W/m2
08:05 64.2 °F 60.9 °F 30.06 in NE 2 mph 2 mph 89% 0.00 in 23 W/m2
08:10 64.3 °F 61 °F 30.06 in NE 2 mph 3 mph 89% 0.00 in 30 W/m2
08:15 64.4 °F 61.1 °F 30.06 in NE 2 mph 3 mph 89% 0.00 in 30 W/m2
08:20 64.5 °F 61.2 °F 30.07 in North 2 mph 2 mph 89% 0.00 in 135 W/m2
08:25 64.6 °F 61.3 °F 30.07 in NNW 1 mph 2 mph 89% 0.00 in 142 W/m2
08:30 64.7 °F 61.4 °F 30.07 in NE 1 mph 1 mph 89% 0.00 in 151 W/m2
08:35 64.9 °F 61.6 °F 30.06 in NE 1 mph 2 mph 89% 0.00 in 163 W/m2
08:40 65.1 °F 61.8 °F 30.06 in North 1 mph 2 mph 89% 0.00 in 181 W/m2
08:50 65.4 °F 62.1 °F 30.07 in NE 1 mph 1 mph 89% 0.00 in 209 W/m2
08:55 65.6 °F 62.3 °F 30.07 in SE 1 mph 1 mph 89% 0.00 in 221 W/m2
09:00 65.8 °F 62.5 °F 30.07 in NNE 1 mph 1 mph 89% 0.00 in 236 W/m2
09:05 65.9 °F 62.6 °F 30.07 in WSW 1 mph 1 mph 89% 0.00 in 47 W/m2
09:10 66.3 °F 63 °F 30.07 in SE 1 mph 1 mph 89% 0.00 in 72 W/m2
09:15 66.6 °F 63.3 °F 30.07 in ESE 1 mph 2 mph 89% 0.00 in 134 W/m2
09:20 66.9 °F 63.6 °F 30.07 in SSW 1 mph 1 mph 89% 0.00 in 93 W/m2
09:25 67.2 °F 63.8 °F 30.08 in South 1 mph 2 mph 89% 0.00 in 97 W/m2
09:30 67.6 °F 63.9 °F 30.08 in SSW 2 mph 2 mph 88% 0.00 in 46 W/m2
09:35 67.8 °F 63.8 °F 30.07 in WSW 2 mph 3 mph 87% 0.00 in 144 W/m2
09:40 68.1 °F 63.8 °F 30.08 in SW 2 mph 2 mph 86% 0.00 in 332 W/m2
09:45 68.5 °F 64.1 °F 30.07 in SW 3 mph 3 mph 86% 0.00 in 130 W/m2
09:50 68.7 °F 64 °F 30.07 in SSW 3 mph 4 mph 85% 0.00 in 121 W/m2
09:55 68.9 °F 64.2 °F 30.07 in South 2 mph 4 mph 85% 0.00 in 53 W/m2
10:00 69.2 °F 64.5 °F 30.07 in SSW 2 mph 2 mph 85% 0.00 in 246 W/m2
10:05 69.4 °F 64.4 °F 30.07 in SSW 2 mph 3 mph 84% 0.00 in 167 W/m2
10:10 69.5 °F 64.5 °F 30.07 in SW 2 mph 2 mph 84% 0.00 in 420 W/m2
10:15 69.7 °F 65 °F 30.07 in South 2 mph 3 mph 85% 0.00 in 431 W/m2
10:20 69.9 °F 64.8 °F 30.07 in WNW 3 mph 3 mph 84% 0.00 in 445 W/m2
10:25 69.9 °F 64.8 °F 30.07 in SSW 3 mph 3 mph 84% 0.00 in 411 W/m2
10:30 69.9 °F 64.8 °F 30.08 in WSW 3 mph 3 mph 84% 0.00 in 469 W/m2
10:35 69.9 °F 64.8 °F 30.07 in SSW 3 mph 4 mph 84% 0.00 in 480 W/m2
10:40 69.7 °F 64.6 °F 30.07 in SSW 3 mph 3 mph 84% 0.00 in 492 W/m2
10:45 69.6 °F 64.5 °F 30.07 in SSW 2 mph 3 mph 84% 0.00 in 501 W/m2
10:50 69.6 °F 64.5 °F 30.07 in SW 2 mph 2 mph 84% 0.00 in 513 W/m2
10:55 69.7 °F 64.6 °F 30.07 in South 3 mph 4 mph 84% 0.00 in 522 W/m2
11:00 69.7 °F 64.3 °F 30.07 in SSW 3 mph 3 mph 83% 0.00 in 534 W/m2
11:05 69.9 °F 64.5 °F 30.07 in SSW 3 mph 3 mph 83% 0.00 in 545 W/m2
11:10 69.9 °F 64.2 °F 30.07 in SE 3 mph 3 mph 82% 0.00 in 554 W/m2
11:15 70.1 °F 64.3 °F 30.07 in SSE 3 mph 3 mph 82% 0.00 in 564 W/m2
11:20 70.3 °F 64.9 °F 30.07 in SSE 2 mph 3 mph 83% 0.00 in 571 W/m2
11:25 70.5 °F 65.1 °F 30.07 in SSW 2 mph 3 mph 83% 0.00 in 580 W/m2
11:30 70.8 °F 65 °F 30.07 in West 3 mph 4 mph 82% 0.00 in 589 W/m2
11:35 71.1 °F 65.3 °F 30.07 in SW 3 mph 4 mph 82% 0.00 in 596 W/m2
11:40 71.3 °F 65.5 °F 30.07 in South 3 mph 3 mph 82% 0.00 in 603 W/m2
11:45 71.4 °F 65.3 °F 30.07 in SW 3 mph 3 mph 81% 0.00 in 612 W/m2
11:50 71.5 °F 64.6 °F 30.06 in SSW 3 mph 3 mph 79% 0.00 in 619 W/m2
11:55 71.7 °F 64.8 °F 30.06 in WSW 3 mph 3 mph 79% 0.00 in 624 W/m2
12:00 72 °F 65.1 °F 30.06 in SSW 3 mph 3 mph 79% 0.00 in 635 W/m2
12:05 72.1 °F 64.9 °F 30.06 in SW 3 mph 3 mph 78% 0.00 in 643 W/m2
12:10 72.3 °F 65.1 °F 30.06 in SSE 3 mph 3 mph 78% 0.00 in 650 W/m2
12:15 72.4 °F 64.8 °F 30.06 in SSW 3 mph 3 mph 77% 0.00 in 656 W/m2
12:20 72.4 °F 64.8 °F 30.05 in SSW 3 mph 4 mph 77% 0.00 in 659 W/m2
12:25 72.6 °F 65.3 °F 30.05 in SE 3 mph 4 mph 78% 0.00 in 664 W/m2
12:30 72.7 °F 65.4 °F 30.05 in SW 2 mph 3 mph 78% 0.00 in 670 W/m2
12:35 72.8 °F 65.9 °F 30.05 in SSE 2 mph 3 mph 79% 0.00 in 675 W/m2
12:40 73 °F 65.7 °F 30.05 in SSW 2 mph 3 mph 78% 0.00 in 680 W/m2
12:45 73.2 °F 65.9 °F 30.05 in SSW 2 mph 3 mph 78% 0.00 in 689 W/m2
12:50 73.3 °F 66 °F 30.04 in SSE 2 mph 4 mph 78% 0.00 in 691 W/m2
13:00 73.8 °F 66.1 °F 30.04 in SE 2 mph 1 mph 77% 0.00 in 700 W/m2
13:05 74 °F 66.3 °F 30.04 in SW 2 mph 3 mph 77% 0.00 in 701 W/m2
13:10 74 °F 66.7 °F 30.04 in South 2 mph 4 mph 78% 0.00 in 707 W/m2
13:15 74.2 °F 66.5 °F 30.04 in SE 2 mph 4 mph 77% 0.00 in 708 W/m2
13:20 74.6 °F 66.9 °F 30.04 in SW 3 mph 3 mph 77% 0.00 in 708 W/m2
13:25 75 °F 67.3 °F 30.04 in South 3 mph 3 mph 77% 0.00 in 710 W/m2
13:30 75.6 °F 67.5 °F 30.04 in SW 3 mph 5 mph 76% 0.00 in 708 W/m2
13:35 75.9 °F 67.4 °F 30.04 in SSW 3 mph 6 mph 75% 0.00 in 708 W/m2
13:40 75.9 °F 67.4 °F 30.04 in SW 3 mph 7 mph 75% 0.00 in 705 W/m2
13:45 75.5 °F 67.8 °F 30.03 in SSW 3 mph 7 mph 77% 0.00 in 707 W/m2
13:50 74.8 °F 67.8 °F 30.03 in WSW 3 mph 3 mph 79% 0.00 in 707 W/m2
13:55 74.4 °F 68.2 °F 30.02 in South 2 mph 3 mph 81% 0.00 in 710 W/m2
14:00 74.6 °F 67.7 °F 30.01 in SSW 2 mph 2 mph 79% 0.00 in 712 W/m2
14:05 74.9 °F 67.6 °F 30.02 in SE 2 mph 2 mph 78% 0.00 in 708 W/m2
14:10 75.1 °F 67 °F 30.01 in South 2 mph 4 mph 76% 0.00 in 707 W/m2
14:15 75.2 °F 67.5 °F 30.01 in East 2 mph 4 mph 77% 0.00 in 701 W/m2
14:20 75.3 °F 68 °F 30.01 in NE 1 mph 1 mph 78% 0.00 in 701 W/m2
14:25 75.7 °F 67.6 °F 30.01 in SSW 1 mph 3 mph 76% 0.00 in 696 W/m2
14:30 75.9 °F 67.4 °F 30.00 in SSE 2 mph 2 mph 75% 0.00 in 694 W/m2
14:35 76.2 °F 66.9 °F 30.00 in SW 2 mph 3 mph 73% 0.00 in 686 W/m2
14:40 76.3 °F 67 °F 30.00 in SE 3 mph 3 mph 73% 0.00 in 684 W/m2
14:45 76.4 °F 66.7 °F 30.00 in West 2 mph 3 mph 72% 0.00 in 679 W/m2
14:50 76.4 °F 66.3 °F 30.00 in SSW 2 mph 2 mph 71% 0.00 in 677 W/m2
14:55 76.5 °F 66 °F 29.99 in South 2 mph 3 mph 70% 0.00 in 670 W/m2
15:00 76.5 °F 66.4 °F 29.99 in SE 2 mph 2 mph 71% 0.00 in 659 W/m2
15:05 76.6 °F 66.5 °F 29.99 in SSW 2 mph 2 mph 71% 0.00 in 654 W/m2
15:10 76.7 °F 65.8 °F 29.99 in South 2 mph 3 mph 69% 0.00 in 647 W/m2
15:15 76.8 °F 65.9 °F 29.99 in SE 2 mph 3 mph 69% 0.00 in 640 W/m2
15:20 77 °F 65.6 °F 29.99 in SSE 2 mph 2 mph 68% 0.00 in 635 W/m2
15:25 77 °F 66 °F 29.99 in SW 2 mph 3 mph 69% 0.00 in 626 W/m2
15:30 77.1 °F 65.7 °F 29.99 in South 2 mph 2 mph 68% 0.00 in 615 W/m2
15:35 77.2 °F 65.4 °F 29.98 in South 2 mph 3 mph 67% 0.00 in 610 W/m2
15:40 77.2 °F 65 °F 29.97 in SSE 3 mph 3 mph 66% 0.00 in 603 W/m2
15:45 77.1 °F 65.3 °F 29.97 in South 2 mph 3 mph 67% 0.00 in 589 W/m2
15:50 77 °F 66 °F 29.97 in SW 2 mph 2 mph 69% 0.00 in 582 W/m2
15:55 77.2 °F 66.2 °F 29.96 in ENE 2 mph 2 mph 69% 0.00 in 575 W/m2
16:00 77.1 °F 66.1 °F 29.96 in SW 1 mph 2 mph 69% 0.00 in 566 W/m2
16:05 77.1 °F 66.1 °F 29.96 in South 1 mph 4 mph 69% 0.00 in 554 W/m2
16:10 77.2 °F 65 °F 29.96 in SSW 2 mph 5 mph 66% 0.00 in 543 W/m2
16:15 77.5 °F 65.2 °F 29.96 in SSW 3 mph 5 mph 66% 0.00 in 531 W/m2
16:20 77.8 °F 65.5 °F 29.96 in SE 3 mph 3 mph 66% 0.00 in 519 W/m2
16:25 77.9 °F 65.6 °F 29.97 in South 3 mph 3 mph 66% 0.00 in 510 W/m2
16:30 78 °F 64.8 °F 29.97 in SE 3 mph 3 mph 64% 0.00 in 499 W/m2
16:35 78 °F 66.2 °F 29.96 in NNE 3 mph 3 mph 67% 0.00 in 489 W/m2
16:40 77.8 °F 65.5 °F 29.95 in NNW 2 mph 2 mph 66% 0.00 in 478 W/m2
16:45 77.7 °F 66.3 °F 29.95 in North 1 mph 2 mph 68% 0.00 in 464 W/m2
16:50 77.6 °F 66.2 °F 29.95 in ESE 2 mph 2 mph 68% 0.00 in 450 W/m2
16:55 77.4 °F 66 °F 29.95 in SE 1 mph 3 mph 68% 0.00 in 438 W/m2
17:00 77.4 °F 65.1 °F 29.95 in ENE 1 mph 3 mph 66% 0.00 in 420 W/m2
17:05 77.8 °F 65.1 °F 29.95 in SSE 2 mph 4 mph 65% 0.00 in 408 W/m2
17:10 78.2 °F 65 °F 29.95 in South 3 mph 4 mph 64% 0.00 in 394 W/m2
17:15 78.3 °F 64.7 °F 29.96 in SSW 3 mph 6 mph 63% 0.00 in 381 W/m2
17:20 78.5 °F 65.8 °F 29.96 in SW 4 mph 4 mph 65% 0.00 in 366 W/m2
17:25 78.4 °F 66.5 °F 29.97 in South 4 mph 4 mph 67% 0.00 in 350 W/m2
17:30 78.2 °F 67.6 °F 29.97 in SSW 5 mph 5 mph 70% 0.00 in 339 W/m2
17:35 77.6 °F 67 °F 29.97 in SW 4 mph 5 mph 70% 0.00 in 322 W/m2
17:40 77.3 °F 67.2 °F 29.97 in SW 4 mph 4 mph 71% 0.00 in 308 W/m2
17:45 77.1 °F 67 °F 29.97 in SW 4 mph 5 mph 71% 0.00 in 292 W/m2
17:50 77 °F 67.3 °F 29.97 in SSE 4 mph 4 mph 72% 0.00 in 274 W/m2
17:55 76.9 °F 67.2 °F 29.97 in SSE 4 mph 5 mph 72% 0.00 in 258 W/m2
18:00 76.7 °F 67.8 °F 29.97 in SW 4 mph 6 mph 74% 0.00 in 244 W/m2
18:05 76.6 °F 67.7 °F 29.97 in SSW 4 mph 7 mph 74% 0.00 in 227 W/m2
18:10 76.4 °F 67.5 °F 29.97 in SSW 4 mph 4 mph 74% 0.00 in 149 W/m2
18:15 76.3 °F 67.4 °F 29.97 in WSW 4 mph 4 mph 74% 0.00 in 188 W/m2
18:20 76.2 °F 66.5 °F 29.97 in WNW 3 mph 3 mph 72% 0.00 in 49 W/m2
18:25 76.1 °F 66 °F 29.97 in SW 3 mph 3 mph 71% 0.00 in 44 W/m2
18:30 76 °F 65.5 °F 29.97 in SSW 3 mph 3 mph 70% 0.00 in 44 W/m2
18:35 76.1 °F 65.6 °F 29.97 in WNW 3 mph 4 mph 70% 0.00 in 42 W/m2
18:40 76.1 °F 65.6 °F 29.97 in SSW 3 mph 3 mph 70% 0.00 in 40 W/m2
18:45 76 °F 65.5 °F 29.97 in West 3 mph 3 mph 70% 0.00 in 37 W/m2
18:50 76.1 °F 65.6 °F 29.97 in SSW 3 mph 3 mph 70% 0.00 in 33 W/m2
18:55 76 °F 66.3 °F 29.97 in SW 2 mph 3 mph 72% 0.00 in 33 W/m2
19:00 76 °F 66.7 °F 29.97 in SSE 2 mph 2 mph 73% 0.00 in 26 W/m2
19:05 75.9 °F 67.8 °F 29.96 in SSE 1 mph 2 mph 76% 0.00 in 25 W/m2
19:10 75.6 °F 67.9 °F 29.96 in NE 1 mph 1 mph 77% 0.00 in 21 W/m2
19:15 75.5 °F 67.4 °F 29.97 in SSW 1 mph 1 mph 76% 0.00 in 18 W/m2
19:20 75.4 °F 66.9 °F 29.97 in WSW 1 mph 2 mph 75% 0.00 in 14 W/m2
19:25 75.3 °F 66.8 °F 29.97 in WSW 1 mph 2 mph 75% 0.00 in 11 W/m2
19:30 75.2 °F 66.3 °F 29.97 in SW 2 mph 3 mph 74% 0.00 in 7 W/m2
19:35 75 °F 66.5 °F 29.97 in WSW 2 mph 3 mph 75% 0.00 in 5 W/m2
19:40 75 °F 66.5 °F 29.97 in South 2 mph 2 mph 75% 0.00 in 0 W/m2
19:45 74.9 °F 66.8 °F 29.98 in WSW 2 mph 4 mph 76% 0.00 in 0 W/m2
19:50 74.9 °F 67.2 °F 29.97 in South 2 mph 2 mph 77% 0.00 in 0 W/m2
19:55 74.7 °F 68.1 °F 29.97 in West 2 mph 4 mph 80% 0.00 in 0 W/m2
20:00 74.5 °F 67.6 °F 29.98 in SSW 2 mph 2 mph 79% 0.00 in 0 W/m2
20:05 74.4 °F 67.1 °F 29.98 in WSW 2 mph 4 mph 78% 0.00 in 0 W/m2
Sand Point, Michigan, USA
Compliments of Weather Underground - 2 mb